[[{"header":{"parameterUnit":"m.s-1","parameterCategory":1,"la1":30.2991,"la2":30.254,"lo1":-89.0895,"lo2":-89.0444,"dy":0.0017,"dx":0.0017,"nx":28,"ny":28,"refTime":"2025-03-19T03:00:00:Z","depth":0,"parameterNumber":2,"parameterNumberName":"U-component_of_WINDS"},"data":[0,0,0,0,0,0,0,0,0,0,0,0,0,0,0,0,0,0,0,0,0,0,0,0,0,0,0,0,0,0,0,0,0,0,0,0,0,0,0,0,0,0,0,0,0,0,0,0,0,0,0,0,0,0,0,0,0,0,-0.4898,-0.4898,0,-0.4924,-0.4925,-0.4925,-0.4937,-0.4937,-0.4937,-0.4937,-0.4966,-0.4966,-0.4967,0,0,0,0,0,0,0,0,0,0,0,0,0,-0.4858,-0.4859,-0.4898,-0.4898,-0.4898,-0.4924,-0.4925,-0.4925,-0.4937,-0.4937,-0.4937,-0.4937,-0.4965,-0.4966,-0.4967,0,0,0,0,0,0,0,0,0,0,0,0,0,-0.4879,-0.4859,-0.4897,-0.4907,-0.4909,-0.4924,-0.4925,-0.4925,-0.4937,-0.4937,-0.4937,-0.4937,-0.4965,-0.4966,-0.4967,-0.4976,0,0,-0.4971,-0.4972,0,0,0,0,0,0,0,0,-0.4878,-0.4881,-0.4906,-0.4907,-0.4908,-0.4927,-0.4921,-0.4942,-0.4937,-0.4926,-0.4937,-0.4937,-0.4953,-0.4955,-0.496,-0.4977,-0.4978,-0.4971,-0.4972,-0.4972,-0.4973,0,0,0,0,0,0,0,-0.4877,-0.488,-0.4908,-0.4906,-0.4907,-0.4911,-0.4914,-0.4925,-0.494,-0.4927,-0.4928,-0.4931,-0.4954,-0.4959,-0.4961,-0.4979,-0.4971,-0.4972,-0.4973,-0.4973,-0.5005,-0.5005,0,0,0,0,0,0,-0.4873,-0.4878,-0.4907,-0.4909,-0.4893,-0.4912,-0.4915,-0.4921,-0.494,-0.4942,-0.4931,-0.4932,-0.4957,-0.496,-0.4962,-0.4974,-0.4972,-0.4973,-0.4974,-0.5004,-0.5005,-0.5005,0,0,0,0,0,0,-0.4873,-0.4876,-0.4906,-0.4894,-0.4898,-0.4912,-0.4919,-0.4922,-0.4927,-0.4942,-0.4945,-0.4934,-0.4957,-0.4961,-0.4972,-0.4975,-0.4974,-0.4975,-0.5004,-0.5004,-0.5005,-0.4996,0,0,0,0,0,0,-0.4871,-0.4875,-0.4878,-0.4894,-0.4899,-0.4915,-0.4919,-0.4922,-0.4929,-0.493,-0.4946,-0.4949,-0.4957,-0.4971,-0.4974,-0.4976,-0.4976,-0.5004,-0.5004,-0.5005,-0.4996,-0.4996,-0.4996,0,0,0,0,0,-0.487,-0.4875,-0.4878,-0.4882,-0.4902,-0.4916,-0.4918,-0.4928,-0.4929,-0.4933,-0.4943,-0.4948,-0.4974,-0.4972,-0.4975,-0.4978,-0.5004,-0.5004,-0.5005,-0.4997,-0.4996,-0.4996,0,0,0,0,0,0,-0.4859,-0.4877,-0.4881,-0.4891,-0.4902,-0.4918,-0.4922,-0.4927,-0.4938,-0.4939,-0.4951,-0.4954,-0.4965,-0.4973,-0.497,-0.4988,-0.499,-0.4991,-0.4982,-0.4982,-0.4982,-0.498,-0.4977,0,0,0,0,0,-0.4858,-0.4867,-0.4882,-0.489,-0.4895,-0.4907,-0.4913,-0.492,-0.4932,-0.4936,-0.4947,-0.4958,-0.4969,-0.4976,-0.4987,-0.4998,-0.5002,-0.5002,-0.5002,-0.5001,-0.5002,-0.5009,-0.501,-0.5006,-0.5006,-0.5006,0,0,-0.4856,-0.4867,-0.4872,-0.4888,-0.4897,-0.4906,-0.4911,-0.4921,-0.4928,-0.4938,-0.495,-0.4958,-0.4972,-0.4983,-0.4989,-0.499,-0.5004,-0.5002,-0.5001,-0.5002,-0.5009,-0.501,-0.501,-0.5006,-0.5006,-0.5006,0,0,-0.4857,-0.4865,-0.4873,-0.4882,-0.4895,-0.4904,-0.4906,-0.4921,-0.4927,-0.4939,-0.4947,-0.4956,-0.4974,-0.4984,-0.4991,-0.4996,-0.5002,-0.4999,-0.4998,-0.5005,-0.5005,-0.5006,-0.5008,-0.5009,-0.5,-0.5,-0.5,0,-0.4852,-0.4866,-0.4876,-0.4885,-0.4893,-0.4902,-0.491,-0.4919,-0.4935,-0.494,-0.4941,-0.4965,-0.4975,-0.4989,-0.499,-0.4996,-0.4999,-0.4998,-0.5004,-0.5005,-0.5005,-0.5008,-0.5008,-0.5,-0.5,-0.5,-0.5,0,-0.486,-0.487,-0.4875,-0.489,-0.4898,-0.4906,-0.4918,-0.4925,-0.4932,-0.494,-0.4953,-0.4965,-0.4979,-0.4983,-0.4989,-0.4998,-0.4999,-0.5002,-0.5004,-0.5005,-0.5008,-0.5009,-0.4999,-0.4999,-0.4999,-0.4999,0,0,-0.4855,-0.4876,-0.4878,-0.4885,-0.4901,-0.4909,-0.4918,-0.4932,-0.4937,-0.4949,-0.4957,-0.4973,-0.4976,-0.4984,-0.4992,-0.4998,-0.5002,-0.5001,-0.5001,-0.5001,-0.5014,-0.5011,-0.5012,-0.5006,-0.5006,-0.5006,-0.5013,0,-0.4858,-0.4875,-0.4885,-0.4898,-0.4907,-0.4917,-0.4925,-0.4936,-0.4944,-0.4954,-0.4964,-0.4975,-0.4978,-0.4983,-0.499,-0.5,-0.5005,-0.5,-0.5015,-0.5015,-0.5011,-0.5014,-0.5011,-0.5016,-0.5014,-0.5014,-0.5014,0,-0.4864,-0.4875,-0.4888,-0.4904,-0.4908,-0.4916,-0.4929,-0.4938,-0.4951,-0.4957,-0.4966,-0.4974,-0.4985,-0.4986,-0.5002,-0.4998,-0.5005,-0.5012,-0.5012,-0.5014,-0.5015,-0.5016,-0.5018,-0.5019,-0.5016,-0.5016,-0.5015,0,-0.4859,-0.4877,-0.4888,-0.4894,-0.4912,-0.4917,-0.4925,-0.4938,-0.4946,-0.4957,-0.4963,-0.4976,-0.4983,-0.4993,-0.5005,-0.5004,-0.502,-0.5021,-0.5025,-0.5025,-0.5028,-0.5028,-0.5032,-0.5032,-0.5032,-0.5032,-0.5032,0,-0.4861,-0.487,-0.4886,-0.4893,-0.4903,-0.4914,-0.4924,-0.4932,-0.4944,-0.4953,-0.4962,-0.4971,-0.4985,-0.4996,-0.5005,-0.5017,-0.502,-0.5026,-0.5028,-0.5025,-0.5024,-0.503,-0.503,-0.5032,-0.5032,-0.5032,-0.5032,0,-0.4858,-0.4869,-0.4881,-0.4898,-0.4902,-0.4908,-0.4923,-0.493,-0.4939,-0.4951,-0.4954,-0.4969,-0.4982,-0.4994,-0.5011,-0.5017,-0.503,-0.5033,-0.5025,-0.5027,-0.503,-0.503,-0.5038,-0.504,-0.5038,-0.5038,-0.5038,0,-0.4859,-0.4865,-0.4882,-0.4889,-0.4896,-0.4907,-0.4915,-0.4927,-0.4935,-0.495,-0.4956,-0.497,-0.4981,-0.5001,-0.5014,-0.5027,-0.5031,-0.5033,-0.5033,-0.503,-0.5032,-0.5031,-0.5032,-0.5033,-0.5033,-0.5033,-0.5033,0,-0.4859,-0.4865,-0.4875,-0.4888,-0.4897,-0.4908,-0.4919,-0.4924,-0.4938,-0.4947,-0.496,-0.4969,-0.4987,-0.5,-0.5015,-0.5024,-0.5031,-0.5032,-0.5034,-0.5031,-0.5027,-0.503,-0.5025,-0.5032,-0.5032,-0.5032,-0.5032,-0.5032,-0.4858,-0.4865,-0.4878,-0.489,-0.4899,-0.491,-0.4918,-0.4928,-0.4939,-0.4954,-0.4961,-0.4974,-0.4988,-0.5009,-0.5018,-0.5029,-0.5031,-0.5033,-0.5034,-0.5034,-0.5034,-0.5025,-0.5032,-0.5032,-0.5032,-0.5032,-0.5032,0,-0.486,-0.4869,-0.488,-0.4895,-0.4904,-0.491,-0.4922,-0.493,-0.4942,-0.4954,-0.4965,-0.4981,-0.4994,-0.5008,-0.5022,-0.5029,-0.5032,-0.5032,-0.5032,-0.5034,-0.5031,-0.5029,-0.5029,-0.5029,-0.5029,-0.5029,-0.5029,-0.5029,-0.4862,-0.4873,-0.488,-0.4897,-0.4906,-0.4919,-0.4926,-0.4936,-0.4946,-0.4963,-0.4974,-0.4983,-0.4996,-0.5012,-0.5025,-0.5028,-0.5033,-0.5033,-0.5037,-0.5034,-0.5034,-0.5034,-0.5032,-0.5033,-0.5033,-0.5039,-0.5039,-0.504]},{"header":{"parameterUnit":"m.s-1","parameterCategory":1,"la1":30.2991,"la2":30.254,"lo1":-89.0895,"lo2":-89.0444,"dy":0.0017,"dx":0.0017,"nx":28,"ny":28,"refTime":"2025-03-19T03:00:00:Z","depth":0,"parameterNumber":3,"parameterNumberName":"V-component_of_WINDS"},"data":[0,0,0,0,0,0,0,0,0,0,0,0,0,0,0,0,0,0,0,0,0,0,0,0,0,0,0,0,0,0,0,0,0,0,0,0,0,0,0,0,0,0,0,0,0,0,0,0,0,0,0,0,0,0,0,0,0,0,5.2166,5.2166,0,5.2202,5.2202,5.2203,5.2157,5.2155,5.2153,5.2152,5.2184,5.2187,5.2189,0,0,0,0,0,0,0,0,0,0,0,0,0,5.2053,5.2055,5.2166,5.2166,5.2167,5.2202,5.2203,5.2203,5.2157,5.2155,5.2153,5.2151,5.2184,5.2186,5.2189,0,0,0,0,0,0,0,0,0,0,0,0,0,5.2097,5.2056,5.2166,5.2148,5.2147,5.2202,5.2203,5.2203,5.2158,5.2155,5.2152,5.215,5.2183,5.2186,5.219,5.2262,0,0,5.2201,5.2202,0,0,0,0,0,0,0,0,5.2094,5.2101,5.215,5.215,5.2148,5.2172,5.2175,5.2223,5.2158,5.2153,5.2152,5.2149,5.2182,5.2186,5.2198,5.2264,5.2265,5.2201,5.2203,5.2205,5.2206,0,0,0,0,0,0,0,5.2091,5.2099,5.218,5.2151,5.215,5.2137,5.2141,5.2183,5.2181,5.2154,5.215,5.2156,5.2181,5.2194,5.2198,5.2265,5.2201,5.2204,5.2206,5.2208,5.2392,5.2395,0,0,0,0,0,0,5.2091,5.2097,5.2179,5.2181,5.2115,5.2141,5.2145,5.2167,5.2181,5.218,5.2158,5.2153,5.2189,5.2194,5.2199,5.2284,5.2205,5.2208,5.221,5.239,5.2393,5.2396,0,0,0,0,0,0,5.2089,5.2099,5.2177,5.2138,5.2147,5.2146,5.2171,5.2169,5.2182,5.2184,5.2183,5.2172,5.2188,5.2194,5.2247,5.2285,5.221,5.2213,5.2386,5.2391,5.2394,5.2456,0,0,0,0,0,0,5.2086,5.2098,5.2127,5.2139,5.215,5.2226,5.2173,5.2172,5.2189,5.2184,5.2197,5.2196,5.2186,5.2242,5.2251,5.2288,5.2216,5.2383,5.2388,5.2393,5.245,5.2461,5.2471,0,0,0,0,0,5.2082,5.2141,5.2128,5.2138,5.2185,5.2228,5.2234,5.2222,5.2193,5.222,5.2221,5.2196,5.228,5.2248,5.2257,5.2297,5.238,5.2387,5.2393,5.2446,5.2459,5.2471,0,0,0,0,0,0,5.2131,5.2143,5.2128,5.2194,5.2211,5.2221,5.2255,5.2237,5.2261,5.2255,5.2238,5.2241,5.2298,5.2303,5.2267,5.2367,5.2325,5.2333,5.2362,5.2375,5.2385,5.2382,5.2219,0,0,0,0,0,5.215,5.2186,5.2193,5.225,5.226,5.2256,5.2275,5.2264,5.228,5.2287,5.2291,5.2307,5.2336,5.2356,5.2383,5.2451,5.2453,5.2483,5.2493,5.2502,5.2509,5.2545,5.2558,5.2416,5.2416,5.2416,0,0,5.2188,5.2199,5.2222,5.226,5.2272,5.2308,5.2262,5.2302,5.2328,5.2292,5.2343,5.2347,5.2363,5.2424,5.2451,5.2429,5.2549,5.251,5.2517,5.2519,5.2552,5.2566,5.2578,5.242,5.2419,5.2419,0,0,5.2277,5.2289,5.2338,5.2351,5.2371,5.2368,5.238,5.2393,5.2395,5.2446,5.242,5.245,5.2502,5.2514,5.2527,5.2623,5.26,5.2632,5.2685,5.272,5.2731,5.2741,5.2774,5.2786,5.2639,5.2639,5.2639,0,5.2321,5.2376,5.2365,5.2407,5.2424,5.2396,5.2444,5.2457,5.2484,5.2496,5.2472,5.2537,5.2546,5.2609,5.2632,5.2644,5.2656,5.2629,5.2731,5.2741,5.275,5.2781,5.2793,5.2643,5.2642,5.2642,5.2642,0,5.2429,5.2468,5.2505,5.2533,5.2555,5.26,5.2595,5.2618,5.2606,5.2606,5.2658,5.2668,5.2697,5.2711,5.27,5.2773,5.2759,5.2734,5.269,5.2767,5.2796,5.2808,5.2648,5.2647,5.2646,5.2645,0,0,5.2547,5.2571,5.2585,5.2597,5.2617,5.2646,5.269,5.272,5.2739,5.2759,5.2795,5.284,5.2817,5.2832,5.2821,5.2853,5.2926,5.2823,5.2823,5.2841,5.3007,5.3025,5.3039,5.2912,5.2915,5.2916,5.3005,0,5.2635,5.2713,5.2705,5.2778,5.2812,5.2787,5.2825,5.284,5.2842,5.287,5.2871,5.2903,5.2871,5.288,5.291,5.2911,5.2959,5.2905,5.2943,5.2945,5.2939,5.3054,5.3073,5.3156,5.3016,5.3018,5.302,0,5.2747,5.2773,5.285,5.2866,5.288,5.2914,5.2941,5.297,5.2987,5.2986,5.3004,5.2988,5.3031,5.2989,5.3047,5.301,5.3026,5.3029,5.3032,5.3033,5.2986,5.3058,5.3183,5.3195,5.3038,5.3036,5.3035,0,5.2824,5.2878,5.2931,5.2943,5.2963,5.2988,5.2997,5.3012,5.303,5.3054,5.3066,5.3094,5.3108,5.313,5.3122,5.3092,5.3181,5.3138,5.318,5.318,5.3198,5.3197,5.3326,5.3211,5.3211,5.3211,5.321,0,5.2922,5.297,5.2966,5.2999,5.3052,5.3042,5.3094,5.3099,5.3113,5.3145,5.3125,5.3155,5.3144,5.3173,5.3167,5.3216,5.3223,5.3222,5.322,5.3223,5.3223,5.3232,5.3225,5.3214,5.3213,5.3213,5.3212,0,5.3016,5.3016,5.3072,5.3087,5.3092,5.313,5.3142,5.3172,5.3172,5.3213,5.3222,5.3223,5.3257,5.3252,5.3288,5.3284,5.3345,5.3336,5.3339,5.3337,5.3378,5.3374,5.3516,5.3534,5.3409,5.341,5.3411,0,5.3077,5.3114,5.3134,5.3155,5.3166,5.32,5.322,5.3212,5.3233,5.3256,5.3283,5.3316,5.3341,5.3395,5.3398,5.3426,5.3417,5.3465,5.3421,5.3423,5.3416,5.3413,5.3417,5.3473,5.3474,5.3476,5.3477,0,5.3186,5.3185,5.3215,5.3246,5.327,5.3294,5.3314,5.3332,5.3327,5.3351,5.3386,5.3406,5.3445,5.3477,5.3504,5.3511,5.3493,5.3491,5.3502,5.3505,5.3505,5.3504,5.3361,5.3487,5.3486,5.3485,5.3485,5.3484,5.3265,5.3296,5.3315,5.335,5.3365,5.3386,5.3415,5.342,5.345,5.3482,5.3475,5.3515,5.3531,5.3566,5.3577,5.3606,5.3588,5.3604,5.3608,5.3612,5.3616,5.3502,5.3611,5.3611,5.3611,5.361,5.361,0,5.3372,5.3383,5.3415,5.3446,5.3473,5.3456,5.3479,5.3502,5.3537,5.3555,5.3581,5.3622,5.3653,5.3659,5.3688,5.3711,5.3703,5.3719,5.3716,5.3718,5.3631,5.3618,5.3725,5.3725,5.3725,5.3725,5.3725,5.3725,5.343,5.3482,5.3484,5.3543,5.3554,5.3594,5.3608,5.3626,5.3641,5.3687,5.3714,5.3718,5.3731,5.3762,5.3789,5.379,5.3801,5.382,5.3818,5.3736,5.3724,5.3713,5.3701,5.3823,5.3823,5.3902,5.3902,5.3903]}]]